Warning: Javascript must be enabled to use all the features on this page!


Page Loading - Please Wait...

Click to hideNews Bulletins

USGS 01075000 PEMIGEWASSET RIVER AT WOODSTOCK, NH

PROVISIONAL DATA SUBJECT TO REVISION

Click to hidestation-specific text
Station funded as part of the National Streamflow Information Program and the U.S. Army Corps of Engineers, New England District.
The precipitation data for this station are temporary and will only be displayed for 120 days. Time series of 15-minute or cumulative daily values will NOT be available for retrieval follwoing the 120-day display period. Although the instrumentation is calibrated at least once/year, the temporary classification means that documented routine inspections and other quality assurance measures are not performed that would make the data accceptable for archival, retrieval, or future use in general scientific or interpretive studies.
Boating safety tips
This station managed by the Pembroke, NH Field Office.

Available Parameters Available Period
All 3 Available Parameters for this site
  
00045 Precipitation 2017-08-18  2017-12-16
00060 Discharge 2001-10-01  2017-12-16
00065 Gage height 2007-10-01  2017-12-16

Graph
Graph w/ stats
Graph w/o stats
Graph w/ (up to 3) parms
Table
Tab-separated
Days  (3)
 

  -- or --
Begin date
 

End date
 

Summary of all available data for this site
Instantaneous-data availability statement
Discharge, cubic feet per second
TIMEDec 13Dec 14Dec 15Dec 16
00:00 EST311P  269P  210P  261P  
00:15 EST311P  265P  207P  261P  
00:30 EST311P  261P  207P  261P  
00:45 EST311P  261P  203P  261P  
01:00 EST311P  261P  203P  261P  
01:15 EST311P  257P  200P  257P  
01:30 EST306P  253P  200P  257P  
01:45 EST306P  253P  200P  257P  
02:00 EST306P  253P  200P  257P  
02:15 EST306P  249P  197P  257P  
02:30 EST306P  249P  197P  257P  
02:45 EST306P  245P  197P  257P  
03:00 EST306P  245P  197P  253P  
03:15 EST306P  245P  197P  253P  
03:30 EST306P  245P  193P  249P  
03:45 EST311P  242P  193P  245P  
04:00 EST311P  242P  190P  245P  
04:15 EST311P  242P  190P  245P  
04:30 EST311P  238P  187P  245P  
04:45 EST311P  234P  187P  242P  
05:00 EST315P  234P  187P  238P  
05:15 EST315P  234P  187P  234P  
05:30 EST315P  234P  184P  234P  
05:45 EST315P  231P  184P  234P  
06:00 EST320P  231P  184P  231P  
06:15 EST320P  227P  181P  231P  
06:30 EST320P  227P  181P  227P  
06:45 EST320P  227P  177P   
07:00 EST320P  227P  177P   
07:15 EST320P  227P  177P   
07:30 EST320P  227P  174P   
07:45 EST320P  224P  174P   
08:00 EST320P  224P  171P   
08:15 EST320P  224P  171P   
08:30 EST320P  220P  168P   
08:45 EST315P  220P  168P   
09:00 EST320P  224P  168P   
09:15 EST320P  224P  168P   
09:30 EST320P  224P  168P   
09:45 EST320P  220P  171P   
10:00 EST320P  220P  171P   
10:15 EST320P  224P  171P   
10:30 EST320P  227P  174P   
10:45 EST320P  227P  177P   
11:00 EST320P  231P  184P   
11:15 EST320P  238P  187P   
11:30 EST320P  245P  193P   
11:45 EST320P  245P  210P   
12:00 EST320P  253P  217P   
12:15 EST320P  261P  217P   
12:30 EST320P  265P  224P   
12:45 EST324P  269P  227P   
13:00 EST324P  269P  227P   
13:15 EST320P  269P  231P   
13:30 EST320P  269P  242P   
13:45 EST320P  269P  242P   
14:00 EST320P  269P  242P   
14:15 EST320P  269P  242P   
14:30 EST315P  265P  238P   
14:45 EST315P  265P  238P   
15:00 EST315P  261P  238P   
15:15 EST311P  257P  238P   
15:30 EST311P  253P  234P   
15:45 EST311P  249P  231P   
16:00 EST311P  249P  231P   
16:15 EST311P  245P  231P   
16:30 EST306P  245P  227P   
16:45 EST306P  245P  227P   
17:00 EST306P  245P  227P   
17:15 EST306P  242P  227P   
17:30 EST306P  242P  227P   
17:45 EST302P  242P  227P   
18:00 EST302P  238P  231P   
18:15 EST302P  238P  231P   
18:30 EST298P  238P  234P   
18:45 EST298P  238P  234P   
19:00 EST298P  238P  242P   
19:15 EST298P  238P  242P   
19:30 EST298P  234P  245P   
19:45 EST298P  234P  245P   
20:00 EST294P  234P  249P   
20:15 EST294P  231P  249P   
20:30 EST294P  231P  253P   
20:45 EST294P  227P  253P   
21:00 EST289P  227P  253P   
21:15 EST289P  227P  253P   
21:30 EST289P  224P  257P   
21:45 EST285P  224P  257P   
22:00 EST285P  220P  257P   
22:15 EST281P  220P  257P   
22:30 EST281P  217P  257P   
22:45 EST277P  217P  257P   
23:00 EST277P  213P  257P   
23:15 EST273P  213P  257P   
23:30 EST273P  210P  257P   
23:45 EST273P  210P  257P   
COUNT96969627
MAX324269257261
MIN273210168227

Explanation
  P  Provisional data subject to revision.